Location: *
(5.7711°N, 0.6731°E)
Time: 14:03:30
(UTC+00:00)

Daily predictions for brighter satellites

Satellite Brightness Start Highest point End
(mag) Time Altitude Azimuth Time Altitude Azimuth Time Altitude Azimuth
STARLINK-1161 3.1 18:21:36 10° NNW 18:24:46 57° NE 18:27:58 10° SE
STARLINK-1160 3.1 18:21:44 10° NNW 18:24:56 57° NE 18:28:07 10° SE
SL-16 R/B 2.2 18:19:41 10° SSW 18:25:22 84° ESE 18:31:01 10° NNE
Cosmos 1371 Rocket 4.3 18:22:05 10° NNW 18:27:17 74° WSW 18:32:28 10° S
ARIANE 5 DEB (SYLDA) 4.1 18:26:54 10° SW 18:28:12 14° S 18:29:40 10° SE
Delta 168 2.9 18:25:11 10° WNW 18:28:51 89° NE 18:34:07 10° ESE
Ariane H10+ 3.8 18:16:42 10° W 18:30:32 45° SSW 18:35:08 10° SE
Cosmos 1025 Rocket 3.6 18:27:16 10° NNW 18:31:29 63° W 18:35:42 10° S
Cosmos 1624 Rocket 4.3 18:27:28 10° NNW 18:32:45 77° WSW 18:38:04 10° S
Okean-O 2.7 18:29:36 10° S 18:34:03 87° W 18:38:28 10° NNW
NOAA 11 4.4 18:30:13 10° SSE 18:35:26 49° ENE 18:40:38 10° N
Intelsat 5-1 Rocket 3.4 18:33:59 10° WSW 18:36:00 19° SSW 18:38:56 10° SE
Cosmos 1844 Rocket 3.5 18:30:55 10° NNW 18:36:25 57° WSW 18:41:54 10° S
STARLINK-1150 3.3 18:33:27 10° NW 18:36:44 69° SW 18:40:02 10° SSE
Cosmos 1242 Rocket 2.7 18:36:45 10° N 18:40:08 47° E 18:43:33 10° SSE
Centaur AC-42 4.1 18:32:23 10° W 18:41:25 25° NNW 18:45:12 10° NNE
ADEOS Rocket 4.1 18:37:40 10° N 18:43:22 46° WNW 18:48:41 10° SSW
STARLINK-1132 3.9 18:41:02 10° NW 18:44:17 51° SW 18:47:33 10° SSE
STARLINK-1177 4.0 18:43:11 10° NW 18:46:24 47° WSW 18:49:39 10° SSE
STARLINK-1167 4.2 18:44:37 10° NW 18:47:49 44° SW 18:51:03 10° SSE
YAOGAN 1 2.6 18:44:30 10° SSE 18:48:45 57° ENE 18:52:58 10° N
Cosmos 2251 Rocket 4.3 18:45:29 10° SSE 18:49:59 28° E 18:54:28 10° NE
Cosmos 1455 Rocket 2.9 18:46:19 10° S 18:50:38 85° E 18:54:56 10° N
STARLINK-1163 4.5 18:48:26 10° NW 18:51:35 38° SW 18:54:44 10° SSE
Aurora 2 Rocket 3.9 18:49:03 10° WSW 18:51:47 23° SSW 18:55:04 10° SSE
S3M 4.4 18:47:17 10° S 18:53:32 71° W 18:59:52 10° N
Lacrosse 4 Rocket 2.2 18:52:45 10° NNW 18:57:01 55° WSW 19:01:11 10° S
Atlas Centaur 2 3.1 18:53:24 10° NW 18:58:25 29° NNE 19:00:56 19° ENE
Hubble Space Telescope 1.9 18:56:07 10° SSW 18:59:38 27° SSE 19:00:58 22° ESE
Cosmos 2098 Rocket 4.2 18:55:21 10° NNW 19:00:02 61° W 19:05:58 10° S
Cosmos 1420 Rocket 3.9 18:55:16 10° NNW 19:00:28 86° ENE 19:05:39 10° SSE
STARLINK-1157 4.3 18:59:26 10° NNW 19:03:14 34° NE 19:04:35 27° E
STARLINK-1134 4.3 19:00:49 10° NNW 19:04:35 34° NE 19:05:46 28° E
STARLINK-1159 4.1 19:04:19 10° NNW 19:08:13 40° NE 19:09:22 32° E
GPS 2-17 Rocket1 4.2 19:04:00 10° NW 19:08:21 33° NNE 19:10:26 23° ENE
STARLINK-1135 4.1 19:05:40 10° NNW 19:09:33 40° NE 19:10:32 34° E
Meteor 2-14 Rocket 4.4 19:03:39 10° N 19:09:43 89° WSW 19:15:49 10° S
Cosmos 371 Rocket 3.5 19:07:47 10° N 19:12:23 44° ENE 19:14:52 24° SE
STARLINK-1171 3.9 19:09:12 10° NNW 19:13:12 46° NE 19:14:10 38° E
STARLINK-1141 3.9 19:10:34 10° NNW 19:14:32 46° NE 19:15:21 40° E
Cosmos 1544 Rocket 4.2 19:13:54 10° SSW 19:18:09 56° W 19:22:25 10° N
STARLINK-1155 3.7 19:14:06 10° NNW 19:18:09 54° NE 19:18:57 46° E
Cosmos 1386 Rocket 4.4 19:12:30 10° N 19:18:21 58° E 19:24:16 10° SSE
STARLINK-1140 3.7 19:15:28 10° NNW 19:19:30 54° NE 19:20:08 48° E
Cosmos 1892 Rocket 3.6 19:15:25 10° N 19:19:48 58° E 19:22:59 18° SSE
Cosmos 1470 2.5 19:16:35 10° S 19:20:25 84° E 19:24:16 10° N
Milstar 3 Cent rocket 4.4 19:11:24 10° NW 19:20:30 58° NNE 19:31:32 27° E
STARLINK-1166 3.6 19:19:03 10° NNW 19:23:10 64° NE 19:23:46 55° E
Cosmos 2278 Rocket 2.2 19:18:05 10° N 19:23:39 60° ENE 19:26:52 25° SE
CZ-4 R/B 3.5 19:20:31 10° SSW 19:23:52 26° WSW 19:27:11 10° NW
STARLINK-1156 3.5 19:20:24 10° NNW 19:24:29 64° NE 19:24:56 58° E
Meteor 2-16 Rocket 4.3 19:18:25 10° N 19:24:34 83° E 19:30:43 10° S
Meteor 2-5 Rocket 3.5 19:19:06 10° N 19:24:37 73° E 19:30:07 10° S
ARIANE 5 DEB (SYLDA) 3.7 19:21:03 10° W 19:25:43 70° NNW 19:25:43 70° NNW
STARLINK-1165 3.5 19:23:58 10° NNW 19:28:06 75° NE 19:28:32 66° ESE
STARLINK-1148 3.4 19:25:19 10° NNW 19:29:26 75° NE 19:29:42 71° E
Okean 1-7 Rocket 3.4 19:27:25 10° N 19:31:47 71° E 19:32:30 57° SE
STARLINK-1169 3.4 19:28:56 10° NNW 19:33:05 87° ENE 19:33:19 79° SE
Ariane Rocket 3.2 19:33:38 49° ENE 19:33:38 49° ENE 19:38:15 10° N
Cosmos 1758 3.6 19:30:15 10° SSW 19:34:17 66° W 19:38:19 10° N
SJ-11-01 4.2 19:33:57 61° ESE 19:34:18 63° ENE 19:38:55 10° N
STARLINK-1158 3.4 19:30:15 10° NNW 19:34:22 87° ENE 19:34:27 85° ESE
Meteor 1-24 Rocket 3.4 19:30:31 10° N 19:35:46 64° E 19:37:05 47° SE
ARGOS Delta rocket 3.7 19:37:07 59° SE 19:37:54 71° E 19:42:52 10° N
STARLINK-1178 3.5 19:33:54 10° NW 19:38:02 81° WSW 19:38:06 80° SW
Cosmos 1452 Rocket 4.3 19:33:52 10° NNW 19:38:57 51° WSW 19:44:03 10° S
Cosmos 332 Rocket 3.6 19:35:27 10° N 19:40:19 72° ENE 19:40:19 72° ENE
USA 229 DEB 4.0 19:33:48 10° NNW 19:41:27 83° WSW 19:47:31 18° SSE
USA 229 3.9 19:33:54 10° NNW 19:41:33 84° WSW 19:47:31 19° SSE
IRS-1A Rocket 4.2 19:41:55 56° ENE 19:41:55 56° ENE 19:47:14 10° N
Cosmos 1818 3.4 19:36:29 10° SSW 19:41:52 78° ESE 19:43:13 51° NE
STARLINK-1120 3.8 19:38:54 10° NW 19:42:54 69° WSW 19:42:54 69° WSW
STARLINK-1131 4.1 19:43:54 10° NW 19:47:41 57° WSW 19:47:41 57° WSW
NOSS 3-1 (A) 4.2 19:41:19 10° NNW 19:50:00 75° ENE 19:54:03 37° SE
Cosmos 1943 3.1 19:46:15 10° SSW 19:51:52 84° WNW 19:55:02 27° NNE
Ariane H10 4.3 19:50:44 10° SW 19:53:15 15° SSW 19:53:15 15° SSW
SL-4 R/B 4.4 19:58:43 10° W 20:00:57 16° NW 20:01:00 16° NW
H-2A R/B 2.7 20:05:15 49° NNW 20:05:15 49° NNW 20:09:05 10° NNW
GEOS 3 Rocket 4.1 20:06:09 53° SW 20:06:20 53° WSW 20:11:16 10° NW
ARIANE 5 R/B 4.2 19:49:54 10° W 20:21:14 78° S 20:21:37 76° SSE
BLOCK DM-SL R/B 4.3 20:22:42 10° WSW 20:26:38 53° SSW 20:26:38 53° SSW
